Tacoma, WA
on Sunday, December 9, 2012

Sunday
Previous Day Next Day
Daily Summary
 ActualAverage (KSEA)Record (KSEA)
Temperature
Mean Temperature °F 41°F  
Max Temperature 43°F 46°F 60°F (1993)
Min Temperature 37°F 36°F 18°F (2009)
Degree Days
Heating Degree Days 25 24  
Month to date heating degree days 212  
Since 1 July heating degree days 1395  
Cooling Degree Days 0 0  
Month to date cooling degree days 0  
Year to date cooling degree days 189  
Moisture
Dew Point 41°F   
Average Humidity 98    
Maximum Humidity 100    
Minimum Humidity 87    
Precipitation
Precipitation 0.09 in 0.17 in 1.78 in (1956)
Month to date precipitation 1.70  
Year to date precipitation 33.84  
Snow
Snow 0.00 in in T in (1978)
Month to date snowfall  
Since 1 July snowfall  
Snow Depth in   
Wind
Wind Speed 2 mph   
Max Wind Speed 8 mph   
Max Gust Speed mph   
Visibility 6 miles   
Events Rain   

Key: T is trace of precipitation, MM is missing value
Source: NWS Daily Summary
Time(PST)TemperatureDew PointHumidity Pressure Visibility Wind DirectionWind SpeedGust SpeedPrecipitationEvents Conditions
12:03 AM 37.4°F 37.4°F 100% 30.34 in 10.0 miles SSE 3.5 mph - N/A   Overcast
12:53 AM 37.4°F 37.4°F 100% 30.35 in 10.0 miles South 2.3 mph - N/A   Overcast
12:58 AM 38.1°F 37.9°F 99% 30.37 in 10.0 miles South 2.3 mph - N/A   Overcast
1:58 AM 37.0°F 36.9°F 99% 30.38 in 10.0 miles South 1.2 mph - N/A   Mostly Cloudy
2:58 AM 37.0°F 36.9°F 99% 30.39 in 10.0 miles East 1.2 mph - N/A   Overcast
3:48 AM 37.4°F 35.6°F 93% 30.36 in 10.0 miles ESE 2.3 mph - N/A   Overcast
3:58 AM 37.2°F 36.9°F 99% 30.39 in 10.0 miles ENE 2.3 mph - N/A   Mostly Cloudy
4:38 AM 37.4°F 37.4°F 100% 30.36 in 10.0 miles South 5.8 mph - N/A   Overcast
4:58 AM 37.4°F 37.0°F 99% 30.39 in 10.0 miles East 2.3 mph - N/A   Overcast
5:58 AM 37.8°F 37.6°F 99% 30.38 in 10.0 miles SE 2.3 mph - N/A   Overcast
6:58 AM 37.6°F 37.2°F 99% 30.38 in 10.0 miles East 2.3 mph - N/A   Overcast
7:55 AM 37.4°F 37.4°F 100% 30.35 in 10.0 miles Calm Calm - N/A   Overcast
7:58 AM 37.4°F 37.2°F 99% 30.37 in 10.0 miles Calm Calm - 0.00 in   Overcast
8:04 AM 37.4°F 37.4°F 100% 30.35 in 10.0 miles SSE 2.3 mph - N/A   Overcast
8:58 AM 38.3°F 37.9°F 99% 30.36 in 10.0 miles Calm Calm - 0.00 in   Overcast
9:38 AM 39.2°F 37.4°F 93% 30.35 in 10.0 miles Calm Calm - N/A   Overcast
9:48 AM 39.2°F 37.4°F 93% 30.35 in 10.0 miles Calm Calm - N/A   Overcast
9:52 AM 39.2°F 37.4°F 93% 30.35 in 10.0 miles Calm Calm - N/A   Overcast
9:58 AM 39.4°F 38.1°F 95% 30.37 in 9.0 miles Calm Calm - 0.00 in   Overcast
10:03 AM 39.2°F 39.2°F 100% 30.36 in 9.0 miles North 2.3 mph - N/A   Light Drizzle
10:05 AM 39.2°F 39.2°F 100% 30.36 in 10.0 miles NNE 2.3 mph - N/A   Overcast
10:20 AM 39.2°F 37.4°F 93% 30.36 in 10.0 miles Calm Calm - N/A   Overcast
10:35 AM 39.2°F 37.4°F 93% 30.35 in 10.0 miles Calm Calm - N/A   Overcast
10:40 AM 41.0°F 37.4°F 87% 30.35 in 10.0 miles Calm Calm - N/A   Overcast
10:55 AM 41.0°F 37.4°F 87% 30.34 in 10.0 miles SE 2.3 mph - N/A   Overcast
10:58 AM 40.3°F 37.9°F 91% 30.36 in 10.0 miles SE 2.3 mph - 0.00 in   Overcast
11:58 AM 41.4°F 39.4°F 93% 30.33 in 10.0 miles Calm Calm - N/A   Overcast
12:08 PM 41.0°F 39.2°F 93% 30.30 in 10.0 miles Calm Calm - N/A   Overcast
12:18 PM 41.0°F 39.2°F 93% 30.29 in 10.0 miles West 1.2 mph - N/A   Overcast
12:23 PM 41.0°F 39.2°F 93% 30.30 in 10.0 miles West 2.3 mph - N/A   Overcast
12:42 PM 41.0°F 39.2°F 93% 30.31 in 10.0 miles NW 3.5 mph - N/A Rain Light Rain
12:48 PM 41.0°F 39.2°F 93% 30.31 in 10.0 miles NW 4.6 mph - N/A   Overcast
12:58 PM 41.7°F 40.1°F 94% 30.32 in 10.0 miles WNW 1.2 mph - 0.00 in   Overcast
1:23 PM 41.0°F 39.2°F 93% 30.29 in 7.0 miles Calm Calm - N/A   Overcast
1:58 PM 42.3°F 40.3°F 93% 30.31 in 10.0 miles East 3.5 mph - N/A   Overcast
2:48 PM 42.8°F 41.0°F 93% 30.27 in 10.0 miles SSE 2.3 mph - N/A   Overcast
2:53 PM 42.8°F 41.0°F 93% 30.28 in 10.0 miles SE 1.2 mph - N/A   Overcast
2:58 PM 42.6°F 41.2°F 95% 30.29 in 8.0 miles SE 2.3 mph - N/A   Overcast
3:11 PM 42.8°F 41.0°F 93% 30.28 in 7.0 miles East 1.2 mph - N/A   Overcast
3:30 PM 42.8°F 42.8°F 100% 30.29 in 5.0 miles Calm Calm - N/A   Light Drizzle
3:40 PM 42.8°F 42.8°F 100% 30.28 in 2.0 miles Calm Calm - N/A   Light Drizzle
3:50 PM 42.8°F 42.8°F 100% 30.28 in 3.0 miles Calm Calm - N/A   Light Drizzle
3:58 PM 42.3°F 42.1°F 99% 30.31 in 3.0 miles Calm Calm - 0.00 in   Light Drizzle
4:18 PM 42.8°F 42.8°F 100% 30.29 in 4.0 miles West 1.2 mph - N/A   Overcast
4:58 PM 42.3°F 42.1°F 99% 30.31 in 5.0 miles SE 1.2 mph - 0.00 in   Overcast
5:03 PM 42.8°F 42.8°F 100% 30.29 in 5.0 miles SE 1.2 mph - N/A   Overcast
5:05 PM 42.8°F 42.8°F 100% 30.29 in 5.0 miles SE 2.3 mph - N/A   Overcast
5:30 PM 42.8°F 42.8°F 100% 30.27 in 4.0 miles East 1.2 mph - N/A   Overcast
5:35 PM 42.8°F 42.8°F 100% 30.28 in 5.0 miles Calm Calm - N/A   Overcast
5:48 PM 42.8°F 42.8°F 100% 30.30 in 7.0 miles NNW 3.5 mph - N/A   Light Drizzle
5:52 PM 42.8°F 42.8°F 100% 30.30 in 5.0 miles NNW 4.6 mph - N/A   Overcast
5:58 PM 42.6°F 42.4°F 99% 30.32 in 4.0 miles North 3.5 mph - 0.01 in   Overcast
6:03 PM 42.8°F 42.8°F 100% 30.30 in 3.0 miles NNW 2.3 mph - N/A   Overcast
6:07 PM 42.8°F 42.8°F 100% 30.30 in 2.5 miles NNW 2.3 mph - N/A   Overcast
6:12 PM 42.8°F 42.8°F 100% 30.30 in 3.0 miles NNW 3.5 mph - N/A   Overcast
6:22 PM 42.8°F 42.8°F 100% 30.31 in 4.0 miles NNW 4.6 mph - N/A   Light Drizzle
6:37 PM 42.8°F 42.8°F 100% 30.30 in 4.0 miles North 3.5 mph - N/A   Light Drizzle
6:42 PM 42.8°F 42.8°F 100% 30.30 in 4.0 miles North 2.3 mph - N/A   Light Drizzle
6:58 PM 43.5°F 43.2°F 99% 30.31 in 3.0 miles SE 2.3 mph - 0.02 in   Light Drizzle
7:06 PM 42.8°F 42.8°F 100% 30.29 in 3.0 miles SE 2.3 mph - N/A   Overcast
7:45 PM 42.8°F 42.8°F 100% 30.29 in 3.0 miles NE 4.6 mph - N/A   Light Drizzle
7:58 PM 42.6°F 42.4°F 99% 30.31 in 3.0 miles ENE 3.5 mph - 0.00 in   Light Drizzle
8:08 PM 42.8°F 42.8°F 100% 30.30 in 2.5 miles NNE 3.5 mph - N/A   Light Drizzle
8:13 PM 42.8°F 42.8°F 100% 30.30 in 3.0 miles North 4.6 mph - N/A   Light Drizzle
8:23 PM 42.8°F 42.8°F 100% 30.31 in 4.0 miles North 8.1 mph - N/A Rain Light Rain
8:58 PM 42.8°F 42.6°F 99% 30.34 in 3.0 miles NNE 1.2 mph - 0.02 in   Light Drizzle
9:03 PM 42.8°F 42.8°F 100% 30.31 in 2.5 miles NNE 1.2 mph - N/A   Light Drizzle
9:13 PM 42.8°F 42.8°F 100% 30.31 in 2.5 miles Calm Calm - N/A   Light Drizzle
9:23 PM 42.8°F 42.8°F 100% 30.32 in 2.5 miles NNE 2.3 mph - N/A   Light Drizzle
9:33 PM 42.8°F 42.8°F 100% 30.32 in 2.5 miles NE 2.3 mph - N/A   Overcast
9:38 PM 42.8°F 42.8°F 100% 30.32 in 2.5 miles NE 3.5 mph - N/A   Light Drizzle
9:53 PM 42.8°F 42.8°F 100% 30.33 in 2.0 miles NE 2.3 mph - N/A   Light Drizzle
9:58 PM 43.0°F 42.8°F 99% 30.36 in 2.0 miles NNE 2.3 mph - 0.01 in   Drizzle
10:01 PM 42.8°F 42.8°F 100% 30.34 in 2.0 miles NNE 3.5 mph - N/A Rain Light Rain
10:06 PM 42.8°F 42.8°F 100% 30.34 in 2.0 miles NNE 3.5 mph - N/A Rain Light Rain
10:11 PM 42.8°F 42.8°F 100% 30.34 in 2.5 miles NNE 2.3 mph - N/A   Light Drizzle
10:21 PM 42.8°F 42.8°F 100% 30.34 in 2.5 miles NNE 2.3 mph - N/A   Light Drizzle
10:26 PM 42.8°F 42.8°F 100% 30.33 in 2.5 miles ENE 1.2 mph - N/A   Light Drizzle
10:31 PM 42.8°F 42.8°F 100% 30.33 in 2.5 miles ENE 1.2 mph - N/A   Light Drizzle
10:35 PM 42.8°F 42.8°F 100% 30.33 in 2.5 miles ENE 1.2 mph - N/A   Overcast
10:44 PM 42.8°F 42.8°F 100% 30.34 in 2.5 miles NNE 2.3 mph - N/A   Light Drizzle
10:49 PM 42.8°F 42.8°F 100% 30.35 in 3.0 miles NNE 3.5 mph - N/A   Light Drizzle
10:54 PM 42.8°F 42.8°F 100% 30.35 in 3.0 miles NNE 2.3 mph - N/A   Light Drizzle
10:58 PM 43.3°F 43.2°F 99% 30.37 in 3.0 miles NNE 3.5 mph - 0.02 in   Light Drizzle
11:03 PM 42.8°F 42.8°F 100% 30.35 in 2.5 miles NNE 3.5 mph - N/A   Light Drizzle
11:24 PM 42.8°F 42.8°F 100% 30.36 in 2.5 miles SE 2.3 mph - N/A   Overcast
11:29 PM 42.8°F 42.8°F 100% 30.35 in 3.0 miles SSE 3.5 mph - N/A   Overcast
11:39 PM 42.8°F 42.8°F 100% 30.36 in 5.0 miles SSE 3.5 mph - N/A   Overcast
11:44 PM 42.8°F 42.8°F 100% 30.35 in 6.0 miles SSE 4.6 mph - N/A   Overcast
11:49 PM 42.8°F 42.8°F 100% 30.35 in 5.0 miles SSE 3.5 mph - N/A   Overcast
11:54 PM 42.8°F 42.8°F 100% 30.35 in 5.0 miles SE 3.5 mph - N/A   Overcast
11:58 PM 42.8°F 42.8°F 100% 30.37 in 5.0 miles SE 3.5 mph - 0.01 in   Overcast
Moon Phase
Dec. 09 Dec. 13 Dec. 20 Dec. 28 Jan. 04
Sunrise:07:44 AM (PST) Moon Rise:03:12 AM (PST)12/9
Sunset:04:20 PM (PST) Moon Set:01:40 PM (PST)12/9

Copyright © 2014 The Weather Underground, Inc.